This demonstration page uses our WeatherBlox Daily Observations layout. Learn more.

Left ArrowRight Arrow

Hourly Observations for September 29, 2015

Temp ( °F °C ) Dew Point ( °F °C ) Humidity (%) Winds ( mph kmh ) Pressure ( in mb ) Visibility ( mi km ) Precip ( " mm )
12:51 am 00:51 Clear 68 20 53 11.7 59 59 Calm 29.79 1009 10 16.0934 0 0
1:51 am 01:51 Clear 67 19.4 53 11.7 61 61 Calm 29.78 1009 10 16.0934 0 0
2:51 am 02:51 Clear 66 18.9 53 11.7 63 63 SSE 3 6 29.78 1009 10 16.0934 0 0
3:51 am 03:51 Clear 65 18.3 53 11.7 66 66 ESE 6 9 29.78 1009 10 16.0934 0 0
4:51 am 04:51 Clear 64 17.8 53 11.7 68 68 ESE 5 7 29.8 1009 10 16.0934 0 0
5:51 am 05:51 Clear 63 17.2 52 11.1 68 68 S 3 6 29.83 1010 10 16.0934 0 0
6:51 am 06:51 Sunny 65 18.3 53 11.7 66 66 E 6 9 29.85 1011 10 16.0934 0 0
7:51 am 07:51 Sunny 70 21.1 51 10.6 51 51 SSE 3 6 29.86 1011 10 16.0934 0 0
8:51 am 08:51 Sunny 75 23.9 50 10 41 41 SSW 3 6 29.88 1012 10 16.0934 0 0
9:51 am 09:51 Sunny 79 26.1 52 11.1 39 39 Calm 29.88 1012 10 16.0934 0 0
10:51 am 10:51 Sunny 83 28.3 51 10.6 33 33 Calm 29.86 1011 10 16.0934 0 0
11:51 am 11:51 Sunny 89 31.7 51 10.6 27 27 WNW 6 9 29.83 1010 10 16.0934 0 0
12:51 pm 12:51 Sunny 93 33.9 50 10 23 23 WNW 7 11 29.79 1009 10 16.0934 0 0
1:51 pm 13:51 Sunny 95 35 49 9.4 21 21 WSW 8 13 29.77 1008 10 16.0934 0 0
2:51 pm 14:51 Sunny 94 34.4 46 7.8 19 19 NNW 5 7 29.75 1008 10 16.0934 0 0
3:51 pm 15:51 Sunny 96 35.6 46 7.8 18 18 WNW 3 6 29.73 1007 10 16.0934 0 0
4:51 pm 16:51 Sunny 94 34.4 45 7.2 18 18 WSW 6 9 29.74 1007 10 16.0934 0 0
5:51 pm 17:51 Sunny 90 32.2 48 8.9 24 24 WNW 6 9 29.74 1007 10 16.0934 0 0
6:51 pm 18:51 Clear 81 27.2 52 11.1 37 37 NNW 7 11 29.77 1008 10 16.0934 0 0
7:51 pm 19:51 Clear 79 26.1 51 10.6 38 38 Calm 29.78 1009 10 16.0934 0 0
8:51 pm 20:51 Clear 77 25 52 11.1 42 42 NNW 7 11 29.79 1009 10 16.0934 0 0
9:51 pm 21:51 Clear 77 25 52 11.1 42 42 SW 3 6 29.79 1009 10 16.0934 0 0
10:51 pm 22:51 Clear 74 23.3 54 12.2 50 50 S 7 11 29.8 1009 10 16.0934 0 0
11:51 pm 23:51 Clear 70 21.1 54 12.2 57 57 E 3 6 29.8 1009 10 16.0934 0 0

Powered by AerisWeather